QPF
0.01 0.01 0.02 0.02 0.04 0.07 0.09 0.09 0.09 0.10 0.10 0.05 0.02 0.00 0.01 0.00 0.00 0.00 0.00 0.00 0.00 0.00 0.00 0.00 0.00 0.00 0.00 0.00 0.00 0.00 0.00 0.00 0.00 0.00 0.00 0.00 0.00 0.00
0.01 0.01 0.02 0.03 0.04 0.06 0.08 0.08 0.06 0.05 0.05 0.04 0.04 0.01 0.01 0.01 0.01 0.00 0.00 0.00 0.00 0.00 0.00 0.00 0.00 0.00 0.00 0.00 0.00 0.00 0.00 0.00 0.00 0.00 0.00 0.00 0.00 0.00
0.00 0.01 0.02 0.04 0.04 0.06 0.09 0.09 0.08 0.05 0.03 0.03 0.03 0.01 0.01 0.01 0.02 0.01 0.00 0.00 0.00 0.00 0.00 0.00 0.00 0.00 0.00 0.00 0.00 0.00 0.00 0.00 0.00 0.00 0.00 0.00 0.00 0.00
0.01 0.00 0.01 0.01 0.03 0.05 0.08 0.08 0.10 0.07 0.05 0.03 0.03 0.02 0.01 0.01 0.02 0.02 0.01 0.00 0.00 0.00 0.00 0.00 0.00 0.00 0.00 0.00 0.00 0.00 0.00 0.00 0.00 0.00 0.00 0.00 0.00 0.00
0.01 0.00 0.00 0.01 0.02 0.04 0.06 0.09 0.10 0.08 0.07 0.04 0.03 0.03 0.01 0.01 0.01 0.01 0.01 0.01 0.01 0.00 0.00 0.00 0.00 0.00 0.00 0.00 0.00 0.00 0.00 0.00 0.00 0.00 0.00 0.00 0.00 0.00
0.01 0.00 0.00 0.01 0.02 0.04 0.06 0.10 0.12 0.14 0.13 0.10 0.06 0.06 0.04 0.03 0.02 0.02 0.02 0.02 0.02 0.01 0.00 0.00 0.00 0.00 0.00 0.00 0.00 0.00 0.00 0.00 0.00 0.00 0.00 0.00 0.00 0.00
0.02 0.00 0.00 0.01 0.01 0.04 0.04 0.10 0.14 0.18 0.20 0.21 0.18 0.14 0.10 0.06 0.04 0.03 0.03 0.03 0.02 0.01 0.00 0.00 0.00 0.00 0.00 0.00 0.00 0.00 0.00 0.00 0.00 0.00 0.00 0.00 0.00 0.00
0.04 0.01 0.00 0.00 0.00 0.00 0.01 0.02 0.05 0.09 0.13 0.18 0.23 0.23 0.19 0.12 0.08 0.05 0.03 0.02 0.02 0.02 0.01 0.01 0.00 0.00 0.00 0.00 0.00 0.00 0.00 0.00 0.00 0.00 0.00 0.00 0.00 0.00
0.05 0.03 0.02 0.00 0.00 0.01 0.01 0.01 0.02 0.02 0.04 0.08 0.12 0.15 0.15 0.13 0.09 0.06 0.05 0.04 0.04 0.03 0.02 0.01 0.01 0.00 0.00 0.00 0.00 0.00 0.00 0.00 0.00 0.00 0.00 0.00 0.00 0.00
0.06 0.03 0.03 0.01 0.01 0.01 0.00 0.01 0.02 0.02 0.02 0.01 0.04 0.08 0.07 0.08 0.07 0.06 0.06 0.07 0.06 0.05 0.03 0.02 0.02 0.01 0.01 0.00 0.00 0.00 0.00 0.00 0.00 0.00 0.00 0.00 0.00 0.00
0.06 0.04 0.04 0.03 0.02 0.01 0.00 0.00 0.01 0.01 0.00 0.00 0.01 0.02 0.02 0.02 0.04 0.05 0.07 0.09 0.11 0.11 0.10 0.07 0.05 0.04 0.02 0.02 0.01 0.00 0.00 0.00 0.00 0.00 0.00 0.00 0.00 0.00
0.05 0.05 0.07 0.05 0.03 0.02 0.01 0.03 0.06 0.04 0.01 0.00 0.01 0.01 0.02 0.04 0.05 0.07 0.11 0.15 0.19 0.21 0.19 0.17 0.16 0.14 0.11 0.06 0.02 0.01 0.00 0.00 0.00 0.00 0.00 0.00 0.00 0.00
0.03 0.02 0.03 0.03 0.02 0.01 0.01 0.04 0.07 0.03 0.00 0.00 0.01 0.02 0.03 0.06 0.07 0.08 0.12 0.19 0.26 0.30 0.31 0.27 0.25 0.22 0.18 0.13 0.08 0.03 0.01 0.00 0.00 0.00 0.00 0.00 0.00 0.00
0.01 0.01 0.01 0.01 0.01 0.01 0.01 0.02 0.02 0.01 0.02 0.02 0.01 0.01 0.02 0.04 0.04 0.04 0.05 0.08 0.11 0.15 0.17 0.16 0.17 0.16 0.13 0.10 0.07 0.04 0.02 0.01 0.01 0.00 0.00 0.00 0.00 0.00
0.00 0.00 0.00 0.00 0.00 0.01 0.01 0.01 0.02 0.03 0.03 0.03 0.03 0.02 0.01 0.02 0.02 0.02 0.03 0.04 0.04 0.04 0.03 0.03 0.03 0.04 0.03 0.03 0.02 0.02 0.02 0.01 0.01 0.01 0.01 0.01 0.01 0.01
0.01 0.01 0.00 0.00 0.00 0.01 0.02 0.02 0.03 0.04 0.04 0.04 0.02 0.01 0.01 0.01 0.01 0.01 0.02 0.03 0.03 0.03 0.02 0.01 0.01 0.01 0.01 0.01 0.02 0.01 0.01 0.01 0.01 0.01 0.01 0.01 0.02 0.02
0.01 0.01 0.03 0.04 0.04 0.04 0.04 0.04 0.04 0.04 0.03 0.03 0.02 0.02 0.02 0.03 0.02 0.01 0.01 0.02 0.03 0.03 0.04 0.03 0.02 0.01 0.01 0.01 0.01 0.01 0.01 0.01 0.02 0.02 0.01 0.01 0.01 0.02
0.02 0.04 0.07 0.11 0.11 0.09 0.08 0.07 0.07 0.06 0.05 0.05 0.04 0.03 0.03 0.03 0.03 0.03 0.02 0.03 0.04 0.03 0.02 0.01 0.01 0.01 0.01 0.01 0.01 0.01 0.01 0.02 0.03 0.02 0.01 0.01 0.00 0.01
0.03 0.07 0.13 0.15 0.14 0.13 0.12 0.11 0.08 0.05 0.04 0.03 0.02 0.01 0.01 0.01 0.01 0.02 0.02 0.02 0.02 0.01 0.01 0.01 0.01 0.01 0.01 0.02 0.03 0.01 0.02 0.04 0.03 0.02 0.02 0.01 0.01 0.00
0.04 0.10 0.16 0.15 0.12 0.11 0.09 0.06 0.05 0.02 0.01 0.01 0.01 0.00 0.00 0.00 0.01 0.01 0.01 0.00 0.00 0.01 0.02 0.03 0.03 0.03 0.03 0.04 0.04 0.04 0.02 0.03 0.03 0.02 0.02 0.01 0.01 0.00
0.03 0.05 0.07 0.07 0.06 0.04 0.02 0.01 0.01 0.00 0.00 0.00 0.00 0.00 0.00 0.00 0.00 0.00 0.01 0.00 0.01 0.01 0.02 0.03 0.02 0.01 0.01 0.03 0.03 0.03 0.03 0.03 0.02 0.01 0.01 0.01 0.01 0.00
0.01 0.01 0.01 0.01 0.01 0.00 0.00 0.00 0.00 0.00 0.00 0.00 0.00 0.00 0.00 0.01 0.01 0.01 0.01 0.01 0.02 0.01 0.01 0.02 0.01 0.01 0.02 0.03 0.04 0.03 0.02 0.02 0.02 0.03 0.02 0.01 0.01 0.01
0.00 0.00 0.00 0.00 0.00 0.00 0.00 0.00 0.00 0.00 0.00 0.00 0.00 0.00 0.00 0.01 0.01 0.01 0.01 0.01 0.01 0.01 0.01 0.01 0.01 0.01 0.01 0.02 0.02 0.02 0.02 0.02 0.02 0.01 0.01 0.01 0.01 0.01
MSLP
1015.23 1015.38 1015.48 1015.53 1015.55 1015.54 1015.52 1015.52 1015.53 1015.57 1015.64 1015.73 1015.82 1015.91 1016.00 1016.09 1016.19 1016.31 1016.48 1016.69 1016.96 1017.28 1017.61 1017.94 1018.23 1018.46 1018.60 1018.67 1018.67 1018.62 1018.55 1018.49 1018.44 1018.41 1018.37 1018.31 1018.20 1018.00
1015.00 1015.11 1015.18 1015.20 1015.19 1015.16 1015.14 1015.13 1015.16 1015.21 1015.30 1015.40 1015.52 1015.62 1015.72 1015.81 1015.91 1016.02 1016.16 1016.35 1016.60 1016.90 1017.22 1017.56 1017.87 1018.13 1018.32 1018.43 1018.47 1018.45 1018.40 1018.35 1018.30 1018.27 1018.24 1018.19 1018.11 1017.97
1014.73 1014.81 1014.85 1014.85 1014.83 1014.80 1014.78 1014.78 1014.81 1014.88 1014.99 1015.11 1015.24 1015.37 1015.48 1015.58 1015.66 1015.75 1015.86 1016.01 1016.21 1016.46 1016.75 1017.06 1017.36 1017.62 1017.84 1017.98 1018.06 1018.09 1018.08 1018.05 1018.02 1018.00 1018.00 1017.98 1017.95 1017.86
1014.42 1014.48 1014.51 1014.51 1014.49 1014.47 1014.46 1014.47 1014.52 1014.61 1014.73 1014.87 1015.03 1015.17 1015.30 1015.40 1015.48 1015.54 1015.62 1015.71 1015.84 1016.02 1016.24 1016.49 1016.75 1016.99 1017.21 1017.38 1017.50 1017.57 1017.60 1017.62 1017.63 1017.65 1017.67 1017.70 1017.71 1017.69
1014.08 1014.13 1014.16 1014.17 1014.17 1014.17 1014.18 1014.21 1014.28 1014.38 1014.52 1014.67 1014.85 1015.01 1015.15 1015.26 1015.34 1015.39 1015.43 1015.46 1015.52 1015.61 1015.74 1015.91 1016.10 1016.31 1016.51 1016.68 1016.83 1016.95 1017.04 1017.11 1017.17 1017.23 1017.30 1017.36 1017.42 1017.45
1013.72 1013.77 1013.81 1013.85 1013.88 1013.90 1013.93 1013.98 1014.06 1014.17 1014.32 1014.49 1014.68 1014.86 1015.02 1015.15 1015.23 1015.28 1015.28 1015.28 1015.27 1015.27 1015.31 1015.39 1015.50 1015.65 1015.81 1015.98 1016.15 1016.30 1016.44 1016.56 1016.67 1016.78 1016.89 1016.99 1017.09 1017.17
1013.38 1013.44 1013.50 1013.56 1013.61 1013.66 1013.72 1013.78 1013.86 1013.97 1014.11 1014.29 1014.48 1014.67 1014.86 1015.00 1015.11 1015.16 1015.16 1015.13 1015.07 1015.01 1014.97 1014.97 1015.00 1015.08 1015.20 1015.35 1015.51 1015.69 1015.86 1016.03 1016.19 1016.34 1016.48 1016.61 1016.74 1016.85
1013.11 1013.16 1013.24 1013.32 1013.40 1013.46 1013.52 1013.58 1013.65 1013.75 1013.88 1014.03 1014.22 1014.43 1014.63 1014.80 1014.94 1015.02 1015.04 1015.01 1014.94 1014.84 1014.75 1014.67 1014.64 1014.65 1014.72 1014.83 1014.99 1015.16 1015.35 1015.55 1015.73 1015.91 1016.07 1016.22 1016.35 1016.48
1012.93 1012.99 1013.07 1013.16 1013.25 1013.31 1013.37 1013.41 1013.45 1013.51 1013.61 1013.74 1013.91 1014.11 1014.32 1014.53 1014.70 1014.83 1014.89 1014.89 1014.84 1014.74 1014.62 1014.51 1014.42 1014.39 1014.40 1014.47 1014.59 1014.75 1014.94 1015.13 1015.32 1015.50 1015.66 1015.81 1015.94 1016.06
1012.89 1012.93 1013.01 1013.10 1013.18 1013.23 1013.26 1013.27 1013.27 1013.29 1013.33 1013.42 1013.56 1013.74 1013.96 1014.20 1014.41 1014.59 1014.71 1014.77 1014.76 1014.68 1014.58 1014.45 1014.34 1014.27 1014.23 1014.26 1014.33 1014.45 1014.60 1014.77 1014.94 1015.10 1015.24 1015.37 1015.48 1015.58
1012.97 1013.00 1013.05 1013.12 1013.19 1013.22 1013.22 1013.19 1013.14 1013.11 1013.09 1013.13 1013.23 1013.39 1013.60 1013.85 1014.10 1014.33 1014.51 1014.63 1014.68 1014.65 1014.58 1014.47 1014.35 1014.25 1014.18 1014.15 1014.17 1014.24 1014.33 1014.45 1014.58 1014.70 1014.81 1014.90 1014.98 1015.06
1013.16 1013.15 1013.18 1013.23 1013.26 1013.27 1013.24 1013.17 1013.09 1013.00 1012.94 1012.92 1012.97 1013.10 1013.29 1013.54 1013.80 1014.07 1014.30 1014.48 1014.59 1014.63 1014.59 1014.51 1014.40 1014.29 1014.18 1014.11 1014.07 1014.07 1014.10 1014.16 1014.22 1014.29 1014.35 1014.41 1014.46 1014.50
1013.40 1013.35 1013.35 1013.37 1013.38 1013.36 1013.31 1013.22 1013.11 1012.98 1012.88 1012.83 1012.83 1012.92 1013.08 1013.31 1013.57 1013.85 1014.12 1014.34 1014.50 1014.58 1014.59 1014.54 1014.45 1014.33 1014.21 1014.09 1014.00 1013.93 1013.89 1013.88 1013.88 1013.89 1013.90 1013.91 1013.93 1013.95
1013.64 1013.55 1013.52 1013.50 1013.49 1013.46 1013.41 1013.31 1013.19 1013.06 1012.94 1012.86 1012.84 1012.88 1013.00 1013.20 1013.44 1013.70 1013.97 1014.21 1014.39 1014.51 1014.56 1014.54 1014.46 1014.35 1014.21 1014.06 1013.92 1013.80 1013.70 1013.62 1013.56 1013.51 1013.48 1013.46 1013.44 1013.45
1013.86 1013.72 1013.64 1013.60 1013.58 1013.56 1013.51 1013.43 1013.33 1013.22 1013.11 1013.02 1012.97 1012.98 1013.07 1013.21 1013.41 1013.64 1013.88 1014.10 1014.29 1014.42 1014.49 1014.49 1014.43 1014.32 1014.18 1014.01 1013.84 1013.68 1013.53 1013.40 1013.29 1013.20 1013.12 1013.07 1013.04 1013.02
1014.04 1013.86 1013.74 1013.68 1013.65 1013.64 1013.62 1013.58 1013.52 1013.44 1013.35 1013.27 1013.22 1013.21 1013.25 1013.35 1013.49 1013.66 1013.86 1014.04 1014.21 1014.33 1014.39 1014.40 1014.36 1014.26 1014.12 1013.95 1013.77 1013.58 1013.40 1013.24 1013.09 1012.97 1012.87 1012.79 1012.74 1012.71
1014.21 1013.99 1013.84 1013.76 1013.73 1013.73 1013.75 1013.75 1013.74 1013.71 1013.66 1013.61 1013.56 1013.53 1013.54 1013.58 1013.66 1013.77 1013.90 1014.03 1014.16 1014.25 1014.31 1014.32 1014.27 1014.19 1014.06 1013.90 1013.72 1013.53 1013.34 1013.16 1013.00 1012.86 1012.74 1012.65 1012.58 1012.53
1014.44 1014.18 1014.01 1013.92 1013.89 1013.91 1013.95 1013.99 1014.03 1014.04 1014.03 1014.00 1013.97 1013.93 1013.91 1013.90 1013.92 1013.96 1014.03 1014.10 1014.17 1014.23 1014.26 1014.26 1014.22 1014.14 1014.02 1013.88 1013.71 1013.53 1013.35 1013.17 1013.01 1012.86 1012.73 1012.63 1012.54 1012.47
1014.78 1014.51 1014.33 1014.23 1014.19 1014.22 1014.28 1014.34 1014.41 1014.45 1014.47 1014.46 1014.42 1014.38 1014.32 1014.28 1014.24 1014.23 1014.23 1014.24 1014.26 1014.27 1014.28 1014.26 1014.22 1014.14 1014.04 1013.91 1013.76 1013.60 1013.43 1013.27 1013.11 1012.96 1012.83 1012.72 1012.61 1012.51
1015.28 1015.03 1014.84 1014.74 1014.70 1014.72 1014.77 1014.84 1014.90 1014.95 1014.97 1014.96 1014.92 1014.86 1014.78 1014.70 1014.62 1014.55 1014.50 1014.46 1014.43 1014.41 1014.38 1014.35 1014.29 1014.22 1014.12 1014.01 1013.88 1013.73 1013.58 1013.43 1013.28 1013.15 1013.01 1012.89 1012.77 1012.64
1015.96 1015.73 1015.56 1015.46 1015.41 1015.41 1015.44 1015.48 1015.52 1015.54 1015.54 1015.51 1015.45 1015.37 1015.26 1015.15 1015.04 1014.93 1014.84 1014.76 1014.69 1014.64 1014.58 1014.52 1014.45 1014.37 1014.27 1014.16 1014.04 1013.91 1013.77 1013.63 1013.50 1013.37 1013.24 1013.12 1012.98 1012.84
1016.77 1016.59 1016.45 1016.35 1016.29 1016.26 1016.24 1016.24 1016.23 1016.20 1016.16 1016.09 1015.99 1015.88 1015.75 1015.61 1015.47 1015.34 1015.22 1015.12 1015.02 1014.94 1014.85 1014.77 1014.68 1014.58 1014.48 1014.36 1014.24 1014.11 1013.98 1013.86 1013.74 1013.62 1013.50 1013.38 1013.24 1013.09
1017.61 1017.49 1017.39 1017.30 1017.23 1017.16 1017.10 1017.03 1016.96 1016.87 1016.77 1016.65 1016.51 1016.36 1016.21 1016.05 1015.90 1015.76 1015.63 1015.50 1015.39 1015.29 1015.18 1015.08 1014.97 1014.85 1014.72 1014.60 1014.47 1014.34 1014.22 1014.10 1013.99 1013.89 1013.79 1013.68 1013.55 1013.40
Thickness
5689 5686 5684 5684 5685 5685 5684 5681 5676 5672 5672 5678 5683 5687 5686 5685 5685 5685 5688 5687 5686 5685 5685 5685 5685 5687 5688 5689 5690 5691 5693 5694 5696 5697 5699 5702 5705 5707
5682 5681 5680 5681 5681 5681 5682 5681 5680 5677 5673 5677 5678 5682 5682 5682 5682 5683 5686 5685 5683 5682 5682 5681 5681 5682 5683 5685 5686 5687 5688 5690 5692 5693 5695 5697 5700 5702
5681 5679 5677 5677 5677 5677 5678 5677 5677 5676 5672 5672 5674 5678 5678 5680 5681 5681 5684 5684 5683 5681 5680 5679 5678 5679 5680 5681 5682 5683 5684 5686 5687 5689 5691 5693 5695 5698
5675 5676 5675 5675 5675 5676 5675 5674 5673 5673 5670 5668 5669 5671 5674 5677 5678 5680 5681 5683 5684 5682 5679 5678 5677 5677 5678 5678 5679 5679 5680 5682 5683 5685 5687 5689 5691 5693
5669 5670 5671 5670 5670 5673 5673 5673 5672 5672 5670 5667 5668 5669 5670 5672 5672 5674 5678 5680 5681 5681 5678 5677 5676 5676 5676 5676 5677 5677 5678 5679 5680 5681 5682 5684 5687 5689
5666 5665 5665 5665 5665 5668 5670 5671 5671 5670 5668 5666 5665 5665 5666 5666 5667 5669 5672 5676 5678 5680 5680 5679 5677 5676 5675 5675 5676 5676 5676 5676 5676 5677 5678 5680 5681 5683
5661 5662 5661 5659 5659 5661 5664 5666 5666 5666 5665 5664 5662 5661 5662 5661 5662 5666 5667 5671 5674 5676 5678 5680 5679 5679 5679 5677 5676 5676 5675 5674 5674 5674 5674 5675 5676 5677
5656 5657 5657 5654 5653 5653 5655 5657 5659 5662 5662 5661 5660 5659 5660 5660 5661 5661 5662 5663 5665 5673 5671 5675 5678 5679 5681 5681 5681 5678 5675 5673 5672 5671 5671 5670 5671 5671
5652 5651 5649 5650 5647 5653 5651 5650 5653 5655 5656 5660 5659 5659 5659 5659 5658 5657 5657 5657 5658 5663 5662 5666 5672 5673 5677 5679 5676 5674 5672 5670 5669 5668 5667 5666 5666 5666
5647 5647 5645 5645 5644 5646 5648 5650 5652 5654 5654 5656 5658 5658 5657 5657 5657 5656 5654 5653 5653 5653 5652 5654 5661 5664 5669 5672 5670 5668 5666 5665 5664 5663 5662 5661 5661 5660
5641 5641 5641 5641 5636 5634 5638 5644 5647 5649 5647 5647 5648 5649 5649 5650 5650 5650 5648 5647 5646 5647 5646 5646 5650 5652 5656 5660 5661 5659 5659 5659 5659 5658 5657 5656 5655 5654
5633 5634 5630 5631 5629 5628 5633 5638 5638 5643 5645 5646 5645 5645 5646 5647 5646 5646 5646 5644 5643 5642 5641 5638 5639 5639 5641 5645 5647 5649 5651 5653 5653 5653 5651 5650 5648 5648
5626 5626 5625 5620 5621 5622 5625 5631 5632 5634 5639 5641 5642 5642 5642 5643 5643 5642 5642 5640 5639 5638 5636 5633 5632 5631 5631 5633 5635 5637 5640 5643 5646 5647 5645 5644 5642 5640
5614 5615 5614 5611 5612 5614 5618 5622 5624 5626 5632 5635 5635 5635 5636 5637 5638 5638 5637 5637 5636 5634 5632 5630 5628 5626 5625 5626 5628 5629 5630 5632 5634 5635 5637 5635 5633 5632
5604 5602 5602 5602 5604 5609 5611 5614 5618 5623 5626 5627 5629 5629 5631 5632 5633 5632 5633 5632 5631 5629 5627 5625 5623 5621 5619 5619 5620 5621 5622 5624 5623 5623 5623 5623 5623 5622
5597 5596 5595 5595 5596 5599 5604 5609 5614 5618 5621 5624 5625 5626 5626 5626 5627 5627 5626 5626 5625 5623 5621 5619 5616 5614 5612 5611 5611 5611 5612 5612 5613 5612 5611 5611 5612 5612
5592 5592 5591 5592 5593 5594 5597 5602 5607 5613 5618 5621 5622 5623 5622 5622 5621 5620 5618 5618 5616 5614 5613 5611 5609 5607 5606 5605 5604 5604 5605 5604 5603 5602 5601 5601 5603 5604
5588 5587 5585 5585 5585 5586 5589 5594 5601 5608 5613 5616 5617 5617 5617 5617 5616 5614 5613 5611 5609 5607 5605 5603 5601 5600 5600 5602 5597 5597 5596 5594 5594 5593 5591 5590 5592 5595
5584 5580 5578 5578 5580 5582 5585 5590 5596 5603 5607 5610 5611 5612 5612 5611 5610 5609 5607 5605 5603 5600 5598 5595 5592 5589 5588 5589 5589 5582 5582 5581 5580 5580 5579 5578 5579 5581
5579 5577 5576 5576 5578 5581 5585 5590 5594 5599 5602 5605 5605 5606 5606 5605 5604 5601 5599 5595 5593 5590 5588 5585 5580 5577 5574 5572 5571 5570 5566 5565 5564 5563 5564 5564 5565 5566
5578 5577 5577 5578 5580 5583 5586 5589 5593 5596 5598 5600 5600 5600 5600 5599 5596 5593 5590 5585 5582 5581 5577 5574 5570 5564 5563 5561 5560 5558 5554 5549 5546 5545 5546 5546 5549 5552
5580 5579 5579 5580 5582 5584 5586 5588 5591 5592 5593 5594 5593 5593 5593 5592 5590 5587 5584 5582 5578 5574 5571 5567 5563 5559 5556 5552 5550 5546 5542 5538 5534 5531 5529 5527 5528 5531
5586 5584 5583 5582 5583 5585 5586 5588 5589 5590 5589 5589 5589 5589 5588 5587 5586 5584 5581 5578 5574 5570 5567 5562 5558 5554 5549 5545 5540 5536 5532 5529 5525 5523 5520 5516 5513 5511